Regional Weather Roundup
Issued by NWS

Home | Current Version | Previous Version | Text Only | Print | Product List | Glossary Off
Versions: 1 2 3 4 5 6 7 8 9 10 11 12 13 14 15 16 17 18 19 20 21 22 23 24 25 26 27 28 29 30 31 32 33 34 35 36 37 38 39 40 41 42 43 44 45 46 47 48 49 50

000
ASUS43 KMPX 251010
RWRMN
WEATHER ROUNDUP FOR MINNESOTA
NATIONAL WEATHER SERVICE TWIN CITIES/CHANHASSEN MN
500 AM CDT FRI JUL 25 2014


NOTE: "FAIR" INDICATES FEW OR NO CLOUDS BELOW 12,000 FEET WITH NO
SIGNIFICANT WEATHER AND/OR OBSTRUCTIONS TO VISIBILITY. N/A MEANS
CURRENT SKY AND/OR WEATHER CONDITIONS ARE NOT AVAILABLE.

MNZ060>063-068>070-251100-
   Twin Cities Metro

CITY           SKY/WX    TMP DP  RH WIND       PRES   REMARKS
TWIN CITIES    HVY RAIN  68  62  81 S9G24     29.92R
ST PAUL        CLOUDY    68  60  75 S12       29.88R
CRYSTAL        TSTM      67  61  81 S15       29.88R
BLAINE         CLOUDY    70  61  73 S14G23    29.87R
LAKEVILLE      CLOUDY    64  59  82 S7        29.91R
EDEN PRAIRIE   TSTM      65  62  90 S20       29.92R FOG
SOUTH ST PAUL  CLOUDY    68  59  73 S10G16    29.88R
LAKE ELMO      FAIR      66  61  82 S10       29.89R
$$
MNZ001>005-007-008-013>017-022>024-027-028-251100-
   Northwest Minnesota

CITY           SKY/WX    TMP DP  RH WIND       PRES   REMARKS
BEMIDJI        CLOUDY    65  61  88 SE6       29.81S
HALLOCK        CLOUDY    66  63  88 S8        29.71F
ROSEAU         CLEAR     63  57  82 SE7       29.75F
WARROAD        PTCLDY    61  57  88 SE6       29.77F
THIEF RVR FALL PTCLDY    66  61  82 SE12      29.72F
CROOKSTON      MOCLDY    66  63  88 S10       29.74F
FOSSTON        CLOUDY    63  59  88 SE6       29.78F
DETROIT LAKES  CLOUDY    64  59  82 SE12      29.78F
MOORHEAD       CLOUDY    66  64  94 E3        29.73S
PARK RAPIDS    CLOUDY    64  61  90 SE7       29.80S
$$
MNZ006-009>011-018-025>026-251100-
   North Central Minnesota

CITY           SKY/WX    TMP DP  RH WIND       PRES   REMARKS
BAUDETTE       CLOUDY    63  59  87 SE6       29.80F
FLAG ISLAND    CLEAR     66  61  82 E5        29.76F
INTL FALLS     CLOUDY    60  58  92 SE3       29.81F
WASKISH        CLOUDY    61  61 100 CALM      29.80F
BIG FORK       MOCLDY    61  57  88 CALM      29.82S
LONGVILLE      LGT RAIN  63  63 100 CALM      29.85R
GRAND RAPIDS   CLOUDY    63  59  88 NE3       29.85R
CRANE LAKE     LGT RAIN  55  55 100 CALM      29.86S
ORR            CLOUDY    61  55  82 E3        29.81S
COOK           CLOUDY    61  57  88 E3        29.83F
$$
MNZ012-019>021-037-251100-
   Northeast Minnesota

CITY           SKY/WX    TMP DP  RH WIND       PRES   REMARKS
DULUTH         MOCLDY    62  56  80 SE8       29.85F
ELY            CLOUDY    61  57  88 CALM      29.85F
HIBBING        MOCLDY    61  57  87 SE3       29.83F
EVELETH        MOCLDY    57  55  94 CALM      29.84F
DULUTH HARBOR  CLOUDY    59  55  88 N3        29.85F
TWO HARBORS    MOCLDY    59  54  82 CALM      29.84F
SILVER BAY     LGT RAIN  57  57 100 CALM      29.85F
GRAND MARAIS     N/A     50  49  96 CALM      29.86R
G MARAIS ARPRT CLEAR     48  46  93 CALM      29.90R
$$
MNZ029>031-032-039>041-046>048-054>057-064-251100-
   West Central Minnesota

CITY           SKY/WX    TMP DP  RH WIND       PRES   REMARKS
FERGUS FALLS   CLOUDY    64  59  82 E7        29.74R
WHEATON        CLOUDY    63  61  94 S10G16    29.73R
MORRIS         CLOUDY    64  63  94 S14G26    29.74R
ALEXANDRIA     CLOUDY    63  60  90 N9        29.77R
ELBOW LAKE     FAIR      63  61  93 S12       29.76R
WADENA         CLOUDY    63  57  82 E3        29.77R
GLENWOOD       CLOUDY    63  61  94 E21G26    29.70F
APPLETON       CLOUDY    64  63  94 S13       29.75R
BENSON         LGT RAIN  64  63  94 SW15      29.76R
ORTONVILLE     CLOUDY    64  61  88 S9G18     29.71F
MADISON        CLOUDY    66  64  94 MISG      29.75F
WILLMAR        FAIR      64  63  94 SE14      29.77F
$$
MNZ033>034-036-042>043-049>051-058-059-251100-
   Central Minnesota

CITY           SKY/WX    TMP DP  RH WIND       PRES   REMARKS
ST CLOUD       TSTM      65  61  87 S6        29.84R
SAUK CENTRE    RAIN      62  60  94 E15       29.77F
PAYNESVILLE    RAIN      61  61  99 NE7       29.79F
AITKIN         RAIN      68  61  77 S9        29.81R
PINE RIVER     LGT RAIN  63  61  94 SE3       29.85S
BRAINERD       LGT RAIN  62  59  90 VRB5      29.80F
STAPLES        CLOUDY    63  57  82 E3        29.77F
LONG PRAIRIE   TSTM      61  59  94 SE16G22   29.77F
LITTLE FALLS   LGT RAIN  63  59  88 SE6       29.82F
LITCHFIELD     TSTM      64  64 100 SE12      29.77F
BUFFALO        CLOUDY    64  60  86 SE7       29.85S
MAPLE LAKE     TSTM      65  63  91 S5        29.85S
$$
MNZ037-044-045-052-053-251100-
   East Central Minnesota

CITY           SKY/WX    TMP DP  RH WIND       PRES   REMARKS
PRINCETON      RAIN      66  61  82 S10       29.83S
MORA           CLOUDY    64  57  77 S5        29.84F
CAMBRIDGE      CLOUDY    70  57  64 S9        29.81S
RUSH CITY      CLOUDY    67  58  75 S7        29.82F
MOOSE LAKE     CLOUDY    64  59  82 CALM      29.81F
HINCKLEY       CLOUDY    64  61  88 CALM      29.83F
CLOQUET        CLOUDY    61  57  88 SE6       29.85S
MCGREGOR       CLOUDY    64  61  88 SE3       29.82F
$$
MNZ071>073-080-081-089-090-097-098-251100-
   Southwest Minnesota

CITY           SKY/WX    TMP DP  RH WIND       PRES   REMARKS
MONTEVIDEO     CLOUDY    64  64 100 SW9       29.79R
GRANITE FALLS  CLOUDY    64  62  94 SE9G16    29.79S
CANBY          CLOUDY    65  63  93 SE10      29.76F
MARSHALL       CLOUDY    64  63  94 S13       29.81F
REDWOOD FALLS  LGT RAIN  65  63  93 S13       29.81F
OLIVIA         LGT RAIN  63  61  94 S14       29.78F
PIPESTONE      CLOUDY    64  61  88 S16       29.81R
WINDOM         LGT RAIN  66  63  88 SE16      29.84F
WORTHINGTON    CLOUDY    64  61  88 SE13G18   29.86F
JACKSON        CLOUDY    66  61  82 S13       29.88F
TRACY          CLOUDY    66  63  91 S13G18    29.82F
SLAYTON        CLOUDY    63  62  96 SE16      29.83F
$$
MNZ065>067-074>077-082>085-091>093-251100-
   South Central Minnesota

CITY           SKY/WX    TMP DP  RH WIND       PRES   REMARKS
MANKATO        CLOUDY    64  59  82 S16       29.89R
NEW ULM        LGT RAIN  64  64 100 SE9       29.83F
ST JAMES       RAIN      52 N/A N/A E3        29.87F
FAIRMONT       CLOUDY    66  61  82 S6        29.88F
GLENCOE        TSTM      65  61  86 SE9       29.85F
FARIBAULT      CLOUDY    70  55  60 S13G18    29.90R THUNDER
OWATONNA       CLOUDY    66  59  77 S12G21    29.89R
WASECA         CLOUDY    63  55  77 SE5       29.92R
ALBERT LEA     CLOUDY    64  63  94 CALM      29.92R
$$
MNZ078>079-086>088-094>096-251100-
   Southeast Minnesota

CITY           SKY/WX    TMP DP  RH WIND       PRES   REMARKS
ROCHESTER      CLOUDY    66  57  72 S18G28    29.91F
RED WING       CLOUDY    70  57  64 SE8       29.87F
STANTON        CLOUDY    68  59  72 S12G20    29.88R
DODGE CENTER   CLOUDY    64  59  82 S17G24    29.90R
WINONA         CLOUDY    70  59  68 S7        29.90F
AUSTIN         CLOUDY    64  59  82 S7        29.91R THUNDER
PRESTON        CLOUDY    64  60  89 S17G24    29.94F
$$
ABBREVIATIONS USED IN REMARKS
   TC - TEMPERATURES IN CELSIUS
  WCI - WIND CHILL INDEX
   HX - HEAT INDEX
  VSB - VISIBILITY
$$


USA.gov is the U.S. government's official web portal to all federal, state and local government web resources and services.